{"data":{"norad_id":54173,"epoch":"2026-09-20T10:43:10.348320Z","epoch_age_seconds":94475,"freshness":"FRESH","line1":"1 54173U 22141S   26263.44664755  .00002569  00000+0  87157-4 0  9993","line2":"2 54173  53.1599 194.1228 0001260  98.4838 261.6307 15.34393930215474","mean_motion":15.3439393,"eccentricity":0.000126,"inclination_deg":53.1599,"raan_deg":194.1228,"arg_perigee_deg":98.4838,"mean_anomaly_deg":261.6307,"bstar":8.7157e-5,"rev_number":21547,"period_min":93.84812933925,"perigee_km":461.85933344229,"apogee_km":463.58322972926,"semimajor_km":6840.8582815858,"source":"CELESTRAK","updated_at":"2026-09-21T09:00:33.090774Z"}}